Regional Weather Roundup
Issued by NWS

Home | Current Version | Previous Version | Text Only | Print | Product List | Glossary Off
Versions: 1 2 3 4 5 6 7 8 9 10 11 12 13 14 15 16 17 18 19 20 21 22 23 24 25 26 27 28 29 30 31 32 33 34 35 36 37 38 39 40 41 42 43 44 45 46 47 48 49 50

794
ASUS45 KCYS 282310
RWRWY

WYOMING REGIONAL WEATHER ROUNDUP
NATIONAL WEATHER SERVICE CHEYENNE WY
500 PM MDT SAT MAY 28 2016

NOTE:  "FAIR" INDICATES FEW OR NO CLOUDS BELOW 12,000 FEET
WITH NO SIGNIFICANT WEATHER AND/OR OBSTRUCTIONS TO VISIBILITY.

WYZ001-290000-
YELLOWSTONE NATIONAL PARK

CITY           SKY/WX    TMP DP  RH WIND       PRES   REMARKS
LK YELLOWSTONE   N/A     50  21  32 VRB7      30.16R
W YELLOWSTONE  NOT AVBL

$$
WYZ002>013-054>058-071-098>099-290000-
NORTHERN WYOMING

CITY           SKY/WX    TMP DP  RH WIND       PRES   REMARKS
JACKSON        MOSUNNY   59  18  20 W13G21    30.09R
CODY           FAIR      63  41  45 NE9       29.98S
GREYBULL       FAIR      71  36  27 N7        29.93F
WORLAND        FAIR      70  36  28 VRB5      29.94S
SHERIDAN       FAIR      67  44  43 CALM      29.98S
BUFFALO        FAIR      63  45  51 N9        30.02S
GILLETTE       FAIR      66  44  45 N10       29.98R
HULETT         MOCLDY    68  46  45 N14       29.99R
NEWCASTLE      FAIR      66  32  28 W9G21     29.97R

$$
WYZ014>020-022>026-101>103-290000-
CENTRAL WYOMING

CITY           SKY/WX    TMP DP  RH WIND       PRES   REMARKS
BIG PINEY      FAIR      62  28  27 W14       30.10S
PINEDALE       FAIR      59  27  29 NW7G21    30.11S
DUBOIS         FAIR      59  14  17 NW12G24   30.06S
LANDER         FAIR      70  26  19 NW9       29.96S
RIVERTON       FAIR      70  26  19 W14G25    29.98S
CASPER         FAIR      67  38  34 N5        29.98R
DOUGLAS          N/A    N/A N/A N/A MISG      29.99R

$$
WYZ021-027>030-104>119-290000-
SOUTHERN WYOMING

CITY           SKY/WX    TMP DP  RH WIND       PRES   REMARKS
EVANSTON       PTSUNNY   60  30  32 W16       30.12S
KEMMERER         N/A     59  30  33 W15G28    30.13S
FORT BRIDGER   MOCLDY    63  28  27 W23G29    30.14S
ROCK SPRINGS   CLOUDY    61  33  35 NW13G22   30.08S
DIXON          FAIR      63  36  36 W3        30.13S
RAWLINS        FAIR      66  27  23 W22       30.07F
SARATOGA       FAIR      55  32  41 W16G29    30.12R
LARAMIE        FAIR      61  29  29 W18G28    30.10S
CHEYENNE       LGT RAIN  61  38  42 N12G31    30.06R
TORRINGTON     FAIR      73  39  29 N10G18    29.94S
PINE BLUFFS    MOCLDY    66  41  39 S8        30.02F

$$




USA.gov is the U.S. government's official web portal to all federal, state and local government web resources and services.